Dewpoint
56 55 57 56 56 54 55 55 57 57 56 56 57 55 57 56 58 59 59 59 57 56 55 55 58 59 60 61 63 63 63 61 62 61 59 59 59 60 61 61 61 61 62 62 58 56 54 54 53 53 55 56 55 55 53 52 51 51 52 51 46 48 50
55 55 55 54 53 56 56 56 57 55 57 58 57 56 57 56 57 59 59 58 57 56 54 56 58 58 60 62 61 62 62 62 63 63 61 60 61 60 59 61 60 58 61 61 59 56 55 52 50 51 52 53 55 53 53 52 50 51 49 48 45 46 50
54 53 53 53 54 56 57 58 57 56 55 57 58 57 57 55 56 58 57 58 58 56 56 57 58 59 59 60 61 61 63 62 62 62 63 64 60 61 58 60 58 58 59 57 60 58 58 57 50 49 52 52 50 51 53 51 49 48 46 47 47 44 47
56 55 54 55 52 54 54 55 56 56 56 56 57 59 58 57 58 57 58 57 59 59 56 56 57 55 58 60 60 60 61 62 62 63 62 62 61 60 59 58 57 56 60 55 57 56 56 56 53 49 51 48 47 48 48 47 45 40 40 44 44 45 47
57 55 54 54 54 53 54 54 54 54 56 56 57 57 58 58 58 57 57 58 57 58 56 56 56 55 57 57 58 59 60 61 61 61 62 61 61 60 60 59 58 58 58 57 57 59 56 56 52 49 46 46 45 43 42 45 38 38 37 36 37 41 43
56 54 53 53 53 52 53 53 52 52 53 55 56 57 57 56 56 57 57 57 56 56 56 53 55 56 56 56 57 58 58 58 59 60 61 62 61 59 56 56 55 56 56 58 60 58 58 59 55 47 43 42 42 40 37 39 38 35 34 33 33 34 36
55 54 53 53 53 52 52 52 53 52 53 56 56 57 55 55 56 58 57 55 54 56 56 57 56 54 54 52 55 55 56 57 58 59 58 58 57 56 55 52 52 50 50 51 52 52 51 50 47 45 44 43 42 36 36 34 35 31 31 29 29 32 34
55 53 52 53 54 53 52 53 52 53 55 56 55 56 54 54 54 55 54 55 56 57 56 56 55 55 54 52 53 55 55 56 56 57 57 57 55 52 52 48 47 44 43 41 41 43 44 48 46 45 44 40 41 39 37 34 37 34 32 28 26 29 33
55 54 53 54 54 54 54 53 53 54 55 55 55 54 52 52 53 52 53 54 55 55 55 53 53 52 51 51 50 52 52 50 53 53 53 53 52 51 50 48 46 44 46 42 43 44 42 45 46 44 43 40 36 35 36 35 37 34 34 30 28 29 31
57 55 55 56 55 55 55 54 53 54 56 55 54 53 52 52 51 51 51 53 54 54 54 53 51 51 51 51 51 51 52 51 52 49 50 51 51 50 48 48 46 45 46 49 46 45 46 46 44 43 41 41 41 37 38 40 40 34 30 28 26 27 30
57 57 56 55 55 55 53 53 54 54 54 54 53 52 52 52 50 48 49 50 51 51 51 50 48 48 50 48 48 47 47 49 49 49 50 49 51 51 51 51 51 49 51 50 49 51 49 48 44 43 42 43 43 41 40 39 42 42 36 33 30 26 28
58 57 55 55 56 55 53 52 52 52 54 54 52 52 51 48 48 47 48 47 49 49 49 49 49 48 47 46 45 44 46 47 47 48 49 50 50 52 51 51 50 49 50 51 51 50 50 47 44 42 44 47 47 48 43 42 42 43 43 38 33 31 30
56 54 55 56 56 54 50 51 51 53 53 50 51 50 47 46 46 46 45 45 46 46 46 47 47 47 47 46 45 44 46 45 42 44 45 47 44 49 50 49 48 48 48 46 48 48 47 48 47 42 44 45 45 48 46 45 42 41 41 38 36 32 33
55 53 54 55 55 53 53 51 52 53 50 50 50 48 46 45 44 46 44 43 42 46 47 48 48 48 47 46 46 45 44 43 42 45 47 48 45 47 46 48 48 49 49 47 46 45 43 42 45 45 45 44 45 47 47 46 42 41 43 43 40 33 38
55 52 54 54 55 52 51 50 53 51 52 50 49 46 45 47 46 45 43 41 42 42 44 45 47 47 46 47 48 48 46 42 42 44 47 45 47 46 48 45 45 47 46 44 46 38 38 38 37 37 39 43 43 45 46 44 42 43 43 43 40 37 37
57 55 54 52 55 52 52 51 49 51 51 48 49 47 46 47 45 45 45 44 41 42 43 45 47 46 47 46 46 48 48 46 45 46 45 44 41 44 46 46 46 48 47 47 47 46 44 40 36 36 40 40 44 44 43 44 44 43 44 42 44 38 40
57 57 55 52 54 54 52 51 48 49 48 49 47 48 47 45 45 45 45 44 43 43 44 47 47 44 43 44 45 46 46 47 47 46 44 41 40 44 45 45 46 46 47 47 44 44 42 43 43 40 41 43 45 44 47 47 45 46 44 42 44 36 38
58 58 57 55 55 53 53 51 50 47 49 48 48 48 46 45 45 44 47 43 44 45 46 46 46 46 47 47 45 46 46 45 47 46 46 45 49 45 46 47 45 45 47 47 47 43 43 44 39 41 40 39 40 44 46 45 45 44 45 44 44 44 43
58 58 57 56 56 54 55 54 49 49 49 46 48 49 47 45 43 42 42 42 43 44 45 45 45 46 47 49 49 49 48 48 48 46 47 47 45 47 48 47 47 47 46 49 47 47 47 44 43 43 41 40 38 43 46 45 45 46 44 43 45 45 46
58 57 57 57 57 56 55 55 54 46 48 49 48 48 47 45 46 44 42 43 43 44 44 45 46 47 47 48 50 50 51 51 50 51 49 48 46 48 49 48 49 48 48 49 49 49 48 48 49 48 45 47 42 44 45 45 43 44 44 44 44 44 43
57 57 58 57 57 57 55 55 56 53 49 50 50 48 47 48 47 45 44 43 44 45 45 45 46 47 47 49 51 52 52 53 52 52 53 51 51 51 51 51 51 50 49 49 51 50 50 50 48 48 48 46 44 44 44 44 44 43 44 45 43 42 42
58 59 59 59 60 57 57 55 55 55 54 51 51 49 49 48 48 48 46 47 45 47 48 48 46 49 50 50 52 53 53 52 54 54 54 53 53 52 52 53 52 53 52 56 50 50 51 50 49 48 50 47 46 46 45 44 45 44 44 44 43 45 41
57 59 59 58 58 58 57 57 57 56 56 53 51 49 48 49 49 49 49 50 50 53 53 54 59 51 51 54 55 54 56 56 55 56 56 56 56 55 54 54 55 57 53 50 48 46 45 46 48 54 53 51 48 47 46 46 45 45 45 44 44 43 41
56 56 57 57 57 56 55 56 57 58 57 56 54 52 51 49 50 50 50 51 52 56 56 57 47 47 48 49 55 57 56 56 56 56 56 56 56 57 58 57 56 58 54 50 50 44 44 44 45 41 40 41 43 55 48 46 46 47 46 46 44 41 41
54 55 55 55 55 55 56 56 57 58 58 59 58 57 55 53 52 52 52 53 54 56 58 52 44 45 46 46 48 60 56 56 56 56 55 54 54 57 58 58 58 58 58 56 53 51 48 43 42 39 37 37 36 36 38 46 46 47 47 45 45 45 44
53 54 54 55 55 58 57 57 57 58 58 59 60 58 56 56 56 55 53 53 54 56 58 45 44 43 44 43 41 47 55 55 55 55 55 55 55 57 58 55 58 59 59 56 57 56 50 49 40 39 38 38 38 36 34 34 36 46 47 46 46 45 44
52 54 55 55 55 56 57 57 58 58 58 58 58 58 58 58 57 57 56 55 55 57 59 47 42 43 43 41 41 43 52 53 55 55 56 57 58 58 58 56 57 57 58 57 57 54 52 50 47 44 45 45 43 43 35 34 35 35 39 44 45 45 47
43 46 49 50 52 53 56 57 58 57 57 57 57 56 56 56 57 57 56 56 57 57 58 46 42 42 42 42 42 40 53 54 57 59 58 57 55 56 56 57 57 56 56 57 55 53 53 51 49 48 47 47 45 42 42 41 42 45 44 45 46 46 47
41 41 42 47 49 49 51 55 57 58 57 57 56 55 55 56 56 56 56 57 58 59 62 41 42 43 42 41 40 52 54 55 57 57 56 56 55 54 52 52 50 51 53 53 50 45 48 52 51 49 48 48 45 44 45 35 36 37 45 47 47 46 44
41 41 41 41 41 47 50 53 56 56 56 56 56 55 55 55 54 55 54 55 55 56 60 44 41 42 41 40 42 54 55 54 55 53 54 54 52 50 52 53 51 48 50 53 45 42 43 46 51 49 48 47 46 46 44 39 36 35 35 35 34 35 35
39 41 41 41 42 45 46 48 49 55 55 55 55 55 54 54 54 54 53 54 54 54 57 48 39 41 41 40 47 55 53 54 54 53 54 52 50 51 49 46 49 51 53 52 39 41 41 47 50 49 47 47 47 45 43 41 39 39 35 34 34 34 33
39 40 41 41 44 44 43 44 45 47 51 54 55 54 54 54 54 55 56 56 56 56 57 48 39 39 40 40 46 56 56 50 46 50 49 48 50 49 49 44 41 44 49 45 37 39 40 43 49 48 48 47 46 45 44 43 43 41 40 40 39 41 39
38 39 41 42 43 43 43 43 44 45 47 47 48 51 53 54 55 55 56 57 58 58 57 54 45 39 40 40 41 54 52 45 45 48 46 47 47 48 48 45 40 36 36 36 36 36 37 37 46 47 46 45 43 44 45 45 47 44 44 43 42 42 42
36 38 39 41 42 42 42 42 42 43 44 45 46 48 54 53 53 53 54 56 57 55 53 55 47 39 40 40 40 42 55 47 47 46 46 45 46 47 45 42 40 36 35 35 35 35 36 36 38 47 46 44 45 44 42 43 43 32 37 38 39 39 38
36 38 37 37 39 40 42 42 42 43 41 42 43 49 52 53 50 50 51 52 52 52 53 51 51 38 39 40 40 38 51 48 49 46 45 45 44 45 44 42 39 37 35 35 35 35 35 35 37 41 39 32 32 34 43 42 41 38 38 38 35 33 33
36 35 37 38 38 40 40 41 42 43 44 44 43 42 48 48 44 44 46 51 46 50 51 50 45 44 36 38 38 38 38 44 42 58 46 45 45 44 44 41 37 36 34 34 34 34 34 33 34 34 32 31 31 30 31 34 35 35 32 33 34 33 31
33 34 34 35 36 37 38 39 40 41 42 42 41 41 42 45 44 43 43 42 43 44 48 48 43 43 41 37 39 39 38 38 40 50 47 44 45 43 41 39 36 34 34 34 33 33 33 33 33 32 31 32 31 31 35 36 32 35 33 31 31 32 33